sat.trackr.live / text

‹ back to catalog

YAOGAN-36 05B

NORAD 57454 · 2023-106C

PAYLOAD ACTIVE UNKNOWN

§ Identity

Operator
Country
PRC
Launch date
2023-07-26
Launch site
XICLF
Launch vehicle
Mass (kg)
RCS (m²)

External: N2YO · Heavens-Above · Gunter

§ Orbital elements

Epoch: 2026-09-21T22:09:25.064928Z

Period
94.90 min
Inclination
34.9934°
Eccentricity
0.0022706
Mean motion
15.17312319 rev/d
Perigee alt
498.3 km
Apogee alt
529.6 km
Semi-major
6,892.1 km
B*
1.8123e-4
RAAN
197.9700°
Arg perigee
247.9045°
Mean anomaly
111.9257°
Rev number
17,556

§ Raw data

YAOGAN-36 05B1 57454U 23106C   26264.92320677  .00003689  00000+0  18123-3 0  99962 57454  34.9934 197.9700 0022706 247.9045 111.9257 15.17312319175563

JSON: /api/v1/satellites/57454 · /tle

For live sub-satellite position, see the globe view (requires WebGL).

§ Visibility from observer

Set your observer location to see the next 7 days of passes ≥ 10°. The values pass through the URL so the page stays shareable.

No JS? Fill the form by hand. The geolocation button needs JavaScript.